STARLINK-1729 (46583 NORAD) Tracking and Keplerian Element Data

This shows tracking and keplerian element data for the satellite.

Feedback or suggestion? Click here.




ElementValue
Catalog46583
NameSTARLINK-1729
Epoch Orbit440
Epoch Day303.25001157
Epoch Year2020
RAAN330.1243
Inclination53.0015
Eccentricity0.0001296
Argument of Perigee66.9533
Mean Anonmoly159.5149
Mean Motion15.62764057
Decay Rate5.33E-05
L11 46583U 20070BD 20303.25001157 .00005330 00000-0 63982-4 0 9997
L22 46583 53.0015 330.1243 0001296 66.9533 159.5149 15.62764057 4403

Live tracking and technical data element details for STARLINK-1729 (NORAD 46583). STARLINK-1729 can be tracked NOW for your location showing map with azimuth and elevation plus other details from your city location.

Track the satellite on the map from your city or location and see movement details for azimuth, elevation, latitude, longitude, range, height, and movement on the map or in text.







IsCatalogInMostPopularTable: catalog: 46583, numindb: 3
Update: records affected: 1



GetName: 46583 STARLINK-1729

Hit Count: updated at: Fri, 30 Oct 2020 00:56:07 GMT